Location: Berg
(47.2344°N, 9.5296°E)
Time: 22:20:59
(UTC+00:00)

H-2A R/B - Pass Details

Date: 24 January 2021
Orbit: 734 x 836 km, 98.2° (Epoch: 03 March)

Event Time Altitude Azimuth Distance (km) Brightness Sun altitude
Rises 17:45:13 0° 156° (SSE) 3,183 5.1 -15.7°
Reaches altitude 10° 17:47:29 10° 153° (SSE) 2,274 4.3 -16.1°
Maximum altitude 17:52:26 67° 72° (ENE) 837 1.9 -16.9°
Drops below altitude 10° 17:57:35 10° 351° (N) 2,354 4.5 -17.8°
Sets 17:59:57 0° 349° (N) 3,303 5.3 -18.2°
